Location: B�rgermoos
(47.6500°N, 9.0667°E)
Time: 17:24:11
(UTC+00:00)

A-11 Canister half - Pass Details

Date: 05 August 2021
Orbit: 1526 x 1683 km, 47.3° (Epoch: 20 September)

Event Time Altitude Azimuth Distance (km) Brightness Sun altitude
Rises 17:00:24 0° 291° (WNW) 4,889 13.2 17.2°
Reaches altitude 10° 17:04:22 10° 278° (W) 3,876 14.0 16.5°
Maximum altitude 17:11:35 24° 230° (SW) 2,883 11.2 15.3°
Drops below altitude 10° 17:18:38 10° 182° (S) 3,769 11.0 14.1°
Sets 17:22:27 0° 169° (S) 4,726 11.3 13.5°
